Wind_Speed
22 25 21 21 20 18 18 18 18 18 18 15 13 12 11 12 13 13 11 10 8 7 6 5 4 2 1 1 1 1 3 5 4 3 3 2 2 4 7 11 11 7 5
24 24 22 22 18 18 18 17 16 14 14 14 12 12 13 12 11 11 10 9 7 6 5 4 4 4 3 3 3 3 4 6 6 5 6 7 5 6 5 6 9 6 6
25 25 25 22 18 18 17 15 15 14 13 12 13 13 13 13 12 11 10 8 7 7 5 4 4 3 3 2 3 4 6 8 8 8 6 9 11 6 5 8 7 5 6
26 26 25 20 19 17 16 14 14 13 13 12 13 12 12 11 12 10 8 7 6 5 4 3 3 2 2 2 2 3 4 7 10 5 6 10 8 2 4 7 7 6 7
24 23 23 19 18 17 16 14 14 12 12 12 11 11 10 9 8 7 5 4 3 3 3 3 3 3 3 4 4 4 4 5 9 4 6 8 9 6 3 5 6 5 6
26 24 22 19 18 17 15 14 13 12 11 11 10 9 8 6 5 4 4 4 4 3 4 4 4 4 4 4 5 5 6 7 9 4 5 3 3 3 1 5 8 7 8
29 19 21 20 18 17 14 13 12 11 10 10 9 7 5 4 3 3 3 3 3 2 2 2 3 3 4 4 4 4 5 7 9 7 3 3 9 6 3 5 7 8 7
24 20 20 21 19 17 14 12 10 9 9 8 6 4 3 3 4 4 3 3 2 2 1 1 2 2 3 4 3 3 4 6 12 7 4 9 1 6 4 4 6 6 8
23 20 21 20 19 16 14 11 9 8 7 6 3 3 4 5 5 4 3 2 2 1 1 2 3 4 4 4 4 3 3 3 7 9 7 13 6 6 5 5 6 7 9
22 18 17 18 16 14 12 10 8 7 6 4 3 5 7 5 4 1 1 4 4 3 4 3 3 1 1 2 2 2 4 7 11 8 8 4 4 6 11 11 8 7 9
23 20 18 15 12 10 6 7 6 6 4 3 4 7 6 2 1 3 5 6 5 5 4 3 2 2 2 3 2 2 4 6 6 9 5 3 7 11 12 12 10 9 8
23 20 20 16 15 11 14 7 5 4 3 3 2 3 4 3 2 1 3 5 3 4 5 3 2 3 5 9 6 7 8 6 3 6 4 3 7 9 6 9 9 9 10
20 18 19 17 15 14 16 9 2 7 1 5 10 9 5 4 8 4 8 6 7 12 4 7 10 8 1 7 4 5 5 6 9 9 8 4 6 6 7 7 7 9 10
21 19 19 18 18 17 14 10 9 9 9 9 8 7 9 11 8 4 8 4 7 3 6 4 6 5 7 12 6 1 3 6 6 18 8 2 5 4 2 2 5 6 8
22 20 19 22 21 19 16 13 12 11 10 8 10 7 6 8 8 12 9 7 7 6 8 6 6 3 6 9 11 7 8 7 5 10 9 4 4 5 5 4 3 1 3
22 21 19 21 23 24 20 17 17 14 9 13 11 12 7 11 12 10 7 7 4 5 7 4 7 6 4 7 7 11 9 8 16 5 6 1 2 3 5 5 4 3 2
24 22 21 19 19 23 22 23 16 12 11 11 12 15 13 11 9 11 11 10 7 6 6 8 6 6 8 7 7 12 13 6 4 5 5 3 1 2 6 7 5 4 4
22 23 22 21 19 18 20 18 14 14 14 11 12 16 16 11 11 10 10 9 12 7 7 5 12 11 8 5 9 14 6 8 9 4 10 7 2 1 4 4 7 6 6
22 25 24 21 21 20 17 17 16 13 15 15 14 15 18 10 10 13 11 8 10 9 10 14 10 9 7 11 9 10 3 5 8 15 10 5 5 0 5 4 6 6 7
24 24 27 23 22 22 18 17 14 15 15 14 14 14 16 13 14 10 8 11 9 7 17 13 14 6 9 10 13 9 5 9 6 19 14 10 11 7 7 4 5 4 6
24 25 26 27 26 22 21 19 19 16 16 16 14 16 14 14 13 13 12 11 12 14 18 12 7 8 13 8 15 4 11 8 8 9 14 14 20 9 9 9 4 4 4
27 29 26 28 28 28 24 18 17 18 17 15 16 17 21 17 17 13 9 11 13 12 17 4 8 15 12 11 6 5 4 12 17 15 16 25 17 4 9 11 8 7 6
30 32 30 29 30 29 25 21 19 19 17 18 18 16 20 20 18 16 15 11 10 8 7 8 9 10 7 5 1 2 9 10 8 9 20 12 13 7 12 15 11 11 7
32 33 31 30 30 27 27 23 22 21 19 18 15 16 19 19 19 17 12 15 14 11 8 13 8 12 10 5 4 4 7 6 5 1 1 6 12 17 15 11 15 13 10
32 33 32 30 31 28 28 28 24 24 19 18 18 18 18 17 20 13 15 17 15 12 14 13 12 11 12 6 4 6 5 6 5 7 17 14 16 16 13 9 17 15 12
33 33 34 34 32 32 29 30 28 24 22 21 18 18 17 18 21 16 19 19 12 10 15 17 11 9 12 10 9 7 8 6 5 7 8 13 11 11 15 10 11 14 14
Wind_Direction
146 142 142 139 133 129 122 116 115 114 110 110 113 112 111 110 113 125 123 118 113 111 118 118 122 131 115 132 133 147 202 200 196 174 153 132 139 127 131 125 109 111 89
146 148 148 145 136 131 126 122 120 122 119 118 115 113 111 113 120 123 128 128 122 122 116 118 118 116 108 107 109 96 118 131 137 147 151 129 127 141 159 153 140 116 110
142 146 148 146 140 136 130 125 123 123 119 116 115 117 115 112 112 111 119 126 127 125 125 121 115 112 120 115 102 100 107 122 119 143 118 185 127 141 155 157 150 139 134
144 143 149 147 143 138 133 130 125 123 119 116 118 120 118 119 117 115 119 125 130 134 144 153 153 170 167 156 147 134 122 128 134 162 188 142 115 153 174 174 161 157 155
143 149 152 148 145 143 139 135 129 126 124 123 123 124 124 122 119 119 126 145 167 184 193 201 202 202 205 204 192 180 171 149 144 176 287 114 131 185 156 193 165 147 158
145 160 153 151 153 146 144 138 135 132 131 127 125 127 126 124 134 146 158 172 181 189 192 187 183 182 187 200 197 194 188 172 169 134 290 125 312 296 121 204 188 169 170
150 162 159 157 155 152 149 145 144 140 137 132 135 137 129 128 140 150 149 151 158 156 167 175 173 180 184 190 181 180 183 176 167 128 145 249 309 264 259 205 196 175 179
156 158 166 157 157 154 151 148 148 150 143 140 144 138 128 130 130 129 125 129 132 132 180 231 223 199 194 195 194 183 166 156 145 151 171 238 306 226 260 204 196 193 204
142 158 168 161 159 157 158 157 154 152 144 149 139 125 122 121 115 114 109 78 32 13 282 269 263 243 237 216 208 189 153 142 164 156 200 232 249 211 270 250 224 219 216
149 156 168 171 167 165 163 159 159 159 153 150 140 128 123 110 115 95 115 27 335 328 336 307 271 325 305 203 201 209 125 98 160 128 241 203 226 243 277 264 248 239 234
157 159 165 181 182 157 204 167 172 167 155 151 133 138 110 68 345 18 28 17 0 354 312 272 253 251 260 241 297 257 173 113 112 153 191 220 244 271 269 253 244 243 247
166 160 169 174 179 179 192 211 240 138 149 74 110 209 228 189 262 291 323 346 348 284 210 178 203 243 201 263 230 257 197 146 165 140 128 227 298 279 271 242 237 242 243
180 177 174 178 175 179 183 220 168 228 209 233 213 235 189 226 252 267 278 286 320 260 221 229 196 147 229 199 184 151 133 172 225 196 162 348 315 284 266 249 238 239 234
186 185 184 182 183 188 177 198 181 200 199 226 263 214 203 214 231 277 266 260 267 322 283 323 29 44 288 237 237 237 247 245 242 181 185 51 349 9 2 238 237 240 234
186 192 192 186 193 178 191 202 188 199 206 202 213 257 197 259 244 242 254 243 260 266 307 307 334 263 271 240 192 213 223 170 200 186 206 288 4 11 45 75 91 195 227
188 192 191 192 206 191 198 185 205 189 212 196 234 234 228 215 239 248 243 260 261 206 273 243 253 270 261 266 211 206 251 213 215 233 222 102 6 34 30 51 66 57 44
188 193 194 199 222 210 199 205 196 194 206 225 196 219 241 249 250 267 245 259 268 264 277 263 300 260 246 259 238 236 204 217 213 167 253 242 4 151 42 34 26 33 34
193 194 199 201 212 224 210 210 207 188 206 213 219 234 254 272 235 249 250 248 256 251 259 285 264 296 294 240 221 248 257 181 173 203 255 228 226 235 359 25 17 6 14
198 194 197 202 206 224 221 209 199 206 206 214 229 234 243 250 248 251 256 252 276 230 262 249 257 234 276 308 300 241 263 197 288 189 214 187 212 358 307 325 7 7 5
197 199 196 203 203 214 229 210 209 191 221 217 219 238 227 251 274 244 252 263 280 263 272 249 250 247 308 267 305 269 8 198 209 230 176 220 210 241 278 263 344 326 345
197 202 200 198 202 205 210 216 195 211 212 218 225 235 237 231 256 267 244 261 244 256 263 253 266 287 281 293 283 84 264 241 205 280 198 184 196 190 247 260 295 240 287
199 200 204 199 202 205 206 216 200 208 218 222 227 231 241 244 241 258 245 258 290 231 272 251 265 263 256 285 299 328 125 222 265 277 237 284 176 161 238 240 252 267 286
201 202 207 204 207 209 200 204 211 217 226 232 231 235 240 253 251 231 251 249 265 286 284 264 230 279 258 261 209 224 140 222 181 176 253 300 167 202 234 248 251 271 290
202 205 209 211 206 211 195 205 208 221 225 232 234 236 238 251 264 233 239 260 258 245 271 260 228 259 253 233 300 229 196 203 204 139 88 157 199 223 210 210 231 255 282
205 201 207 216 211 211 205 197 212 217 226 230 236 238 240 243 243 240 243 249 257 237 239 245 218 227 260 286 275 305 267 209 206 177 203 202 207 203 206 210 232 251 257
203 203 205 213 220 217 217 214 209 219 225 226 236 236 235 246 239 243 221 238 256 251 249 256 248 256 258 250 252 247 271 253 284 247 240 237 234 210 204 238 229 226 251
Height
1544 1546 1549 1552 1553 1555 1557 1558 1559 1560 1561 1562 1563 1563 1564 1565 1567 1568 1569 1571 1572 1572 1573 1574 1575 1574 1574 1574 1573 1574 1575 1576 1577 1578 1578 1578 1579 1580 1580 1581 1581 1580 1582
1543 1546 1549 1552 1555 1556 1558 1560 1561 1562 1563 1564 1564 1565 1566 1567 1568 1569 1571 1571 1572 1573 1574 1574 1575 1575 1574 1574 1574 1575 1575 1576 1577 1576 1575 1575 1575 1578 1581 1581 1582 1582 1582
1543 1546 1550 1553 1555 1557 1559 1561 1562 1563 1564 1565 1565 1566 1567 1568 1570 1571 1572 1572 1573 1573 1573 1574 1575 1575 1574 1574 1574 1575 1575 1577 1578 1575 1573 1569 1573 1576 1580 1581 1582 1582 1582
1542 1547 1551 1554 1556 1558 1560 1562 1563 1564 1565 1566 1567 1568 1569 1570 1571 1572 1572 1572 1572 1572 1572 1573 1573 1573 1572 1572 1573 1575 1575 1578 1579 1573 1575 1578 1582 1584 1581 1581 1582 1583 1583
1545 1549 1551 1554 1557 1559 1561 1563 1565 1566 1566 1567 1568 1569 1570 1571 1571 1572 1572 1572 1571 1570 1570 1570 1570 1570 1570 1570 1571 1573 1575 1578 1580 1576 1574 1581 1575 1586 1581 1582 1582 1583 1584
1547 1549 1551 1555 1558 1560 1562 1564 1565 1566 1567 1568 1569 1570 1570 1571 1571 1571 1570 1570 1570 1569 1569 1569 1569 1569 1568 1568 1568 1569 1573 1576 1579 1579 1576 1580 1585 1582 1581 1583 1583 1582 1583
1547 1549 1552 1556 1559 1561 1563 1564 1566 1567 1568 1568 1569 1570 1570 1570 1570 1570 1570 1570 1570 1571 1573 1573 1572 1572 1570 1569 1568 1567 1569 1573 1577 1579 1578 1575 1580 1581 1584 1583 1582 1581 1582
1546 1550 1554 1556 1559 1561 1563 1565 1566 1567 1568 1569 1570 1570 1570 1570 1570 1570 1571 1571 1572 1573 1573 1573 1573 1573 1572 1569 1568 1568 1568 1570 1572 1574 1577 1575 1579 1581 1581 1581 1580 1580 1581
1548 1550 1554 1557 1559 1561 1563 1565 1566 1567 1568 1569 1570 1570 1570 1570 1570 1571 1571 1573 1574 1574 1574 1574 1572 1572 1573 1571 1568 1566 1567 1568 1569 1571 1573 1573 1576 1577 1579 1579 1579 1578 1579
1548 1550 1554 1557 1559 1561 1563 1565 1566 1567 1568 1569 1570 1570 1570 1570 1571 1571 1571 1574 1573 1572 1572 1571 1570 1572 1573 1573 1570 1568 1567 1567 1568 1569 1570 1572 1574 1576 1577 1577 1577 1577 1578
1549 1551 1554 1557 1559 1562 1563 1565 1566 1567 1568 1569 1570 1570 1570 1570 1570 1570 1573 1571 1573 1570 1569 1567 1568 1569 1572 1572 1572 1571 1568 1567 1567 1568 1569 1571 1572 1573 1573 1573 1574 1574 1575
1549 1551 1553 1556 1559 1562 1564 1565 1566 1567 1568 1569 1569 1569 1569 1569 1570 1570 1572 1571 1570 1565 1562 1560 1564 1565 1565 1565 1568 1571 1568 1566 1566 1567 1568 1570 1571 1571 1570 1570 1571 1572 1574
1549 1551 1553 1556 1558 1562 1564 1564 1565 1564 1566 1567 1569 1569 1568 1568 1569 1569 1571 1570 1570 1563 1559 1565 1556 1560 1566 1566 1570 1571 1567 1564 1565 1563 1563 1566 1568 1569 1568 1568 1569 1570 1571
1547 1549 1552 1555 1556 1560 1562 1563 1565 1567 1567 1566 1566 1567 1566 1566 1567 1568 1569 1568 1567 1561 1563 1565 1561 1566 1559 1569 1573 1573 1569 1568 1567 1563 1562 1565 1567 1568 1567 1567 1568 1569 1569
1544 1548 1550 1551 1553 1557 1559 1561 1562 1565 1565 1566 1564 1565 1565 1564 1563 1566 1567 1567 1567 1564 1562 1563 1564 1567 1570 1571 1572 1571 1566 1565 1567 1568 1567 1565 1567 1567 1567 1566 1566 1567 1568
1541 1545 1548 1548 1551 1555 1556 1558 1560 1561 1563 1564 1564 1563 1563 1563 1562 1563 1564 1565 1566 1568 1568 1568 1566 1567 1566 1568 1571 1569 1566 1565 1564 1564 1568 1566 1567 1568 1567 1566 1566 1566 1567
1537 1543 1546 1546 1547 1551 1553 1556 1557 1560 1562 1562 1562 1562 1561 1561 1560 1560 1560 1561 1564 1568 1570 1571 1567 1566 1563 1563 1565 1564 1561 1560 1559 1564 1567 1568 1567 1569 1567 1566 1565 1564 1565
1535 1539 1543 1545 1545 1547 1549 1552 1554 1557 1560 1561 1561 1560 1559 1559 1559 1558 1558 1559 1561 1564 1567 1569 1564 1563 1561 1561 1562 1563 1563 1561 1560 1561 1564 1565 1566 1569 1568 1566 1565 1564 1563
1532 1533 1539 1542 1545 1544 1547 1549 1551 1555 1556 1558 1559 1558 1556 1557 1558 1558 1557 1558 1558 1558 1558 1560 1560 1559 1560 1562 1562 1564 1564 1564 1559 1559 1561 1562 1564 1566 1568 1565 1564 1563 1563
1528 1530 1534 1539 1543 1543 1545 1547 1550 1551 1554 1554 1554 1555 1554 1555 1556 1556 1558 1559 1561 1559 1556 1553 1554 1556 1558 1563 1559 1559 1558 1561 1554 1535 1552 1557 1558 1562 1563 1564 1563 1561 1561
1524 1526 1529 1534 1537 1540 1542 1544 1547 1549 1551 1552 1552 1552 1552 1554 1554 1555 1557 1559 1556 1554 1556 1555 1553 1556 1559 1562 1561 1563 1567 1557 1555 1550 1541 1555 1553 1553 1559 1560 1560 1558 1558
1519 1523 1525 1530 1532 1535 1539 1541 1544 1546 1548 1548 1549 1550 1549 1550 1552 1553 1555 1557 1554 1555 1558 1555 1552 1556 1559 1559 1560 1559 1563 1558 1561 1556 1546 1513 1551 1545 1554 1555 1556 1555 1555
1514 1516 1520 1524 1527 1530 1535 1539 1542 1544 1544 1545 1546 1546 1546 1547 1547 1550 1551 1552 1554 1553 1551 1549 1545 1551 1557 1559 1555 1560 1559 1558 1555 1559 1558 1543 1539 1546 1553 1554 1555 1552 1551
1510 1512 1516 1520 1523 1526 1531 1535 1537 1539 1540 1542 1542 1543 1544 1543 1544 1545 1547 1545 1545 1545 1546 1547 1547 1548 1553 1558 1557 1552 1554 1553 1548 1551 1545 1541 1542 1549 1553 1555 1555 1551 1551
1506 1508 1512 1516 1521 1523 1526 1530 1533 1535 1538 1539 1540 1539 1540 1541 1541 1543 1545 1543 1544 1545 1548 1549 1547 1546 1547 1549 1552 1550 1553 1551 1547 1550 1547 1544 1545 1547 1552 1554 1554 1551 1548
1500 1505 1508 1510 1515 1520 1522 1525 1528 1531 1533 1535 1536 1536 1536 1538 1539 1537 1540 1545 1549 1550 1551 1548 1548 1544 1543 1542 1545 1549 1549 1546 1547 1545 1542 1540 1540 1542 1547 1550 1552 1552 1552